Location: Newark
(58.9986°N, 38.5006°E)
Time: 15:37:07
(UTC+00:00)

N. Korean satellite - Pass Details

Date: 08 December 2019
Orbit: 454 x 508 km, 97.2° (Epoch: 19 January)

Event Time Altitude Azimuth Distance (km) Brightness Sun altitude
Rises 04:12:55 0° 12° (NNE) 2,588 10.1 -12.5°
Reaches altitude 10° 04:15:04 10° 6° (N) 1,692 9.1 -12.3°
Maximum altitude 04:18:33 46° 293° (WNW) 665 6.8 -11.9°
Drops below altitude 10° 04:21:57 10° 219° (SW) 1,649 9.1 -11.5°
Sets 04:24:01 0° 214° (SSW) 2,513 10.1 -11.2°
